Year,Month,Day,Hour,Minute,Value (Times are PST for temperature in C)
2011,04,10,00,00,6.40
2011,04,10,00,01,6.40
2011,04,10,00,02,6.40
2011,04,10,00,03,6.40
2011,04,10,00,04,6.40
2011,04,10,00,05,6.40
2011,04,10,00,06,6.40
2011,04,10,00,07,6.40
2011,04,10,00,08,6.40
2011,04,10,00,09,6.40
2011,04,10,00,10,6.40
2011,04,10,00,11,6.40
2011,04,10,00,12,6.40
2011,04,10,00,13,6.40
2011,04,10,00,14,6.40
2011,04,10,00,15,6.40
2011,04,10,00,16,6.40
2011,04,10,00,17,6.40
2011,04,10,00,18,6.40
2011,04,10,00,19,6.40
2011,04,10,00,20,6.30
2011,04,10,00,21,6.30
2011,04,10,00,22,6.30
2011,04,10,00,23,6.30
2011,04,10,00,24,6.30
2011,04,10,00,25,6.30
2011,04,10,00,26,6.30
2011,04,10,00,27,6.30
2011,04,10,00,28,6.30
2011,04,10,00,29,6.30
2011,04,10,00,30,6.30
2011,04,10,00,31,6.30
2011,04,10,00,32,6.30
2011,04,10,00,33,6.30
2011,04,10,00,34,6.30
2011,04,10,00,35,6.30
2011,04,10,00,36,6.30
2011,04,10,08,31,6.20
2011,04,10,08,32,6.20
2011,04,10,08,33,6.30
2011,04,10,08,34,6.30
2011,04,10,08,35,6.30
2011,04,10,08,36,6.30
2011,04,10,08,37,6.30
2011,04,10,08,38,6.30
2011,04,10,08,39,6.30
2011,04,10,08,40,6.30
2011,04,10,08,41,6.30
2011,04,10,08,42,6.30
2011,04,10,08,43,6.30
2011,04,10,08,44,6.40
2011,04,10,08,45,6.40
2011,04,10,08,46,6.40
2011,04,10,08,47,6.40
2011,04,10,08,48,6.40
2011,04,10,08,49,6.40
2011,04,10,08,50,6.40
2011,04,10,08,51,6.40
2011,04,10,08,52,6.40
2011,04,10,08,53,6.40
2011,04,10,08,54,6.40
2011,04,10,08,55,6.50
2011,04,10,08,56,6.50
2011,04,10,08,57,6.50
2011,04,10,08,58,6.50
2011,04,10,08,59,6.50
2011,04,10,09,00,6.60
2011,04,10,09,01,6.60
2011,04,10,09,02,6.60
2011,04,10,09,03,6.60
2011,04,10,09,04,6.60
2011,04,10,09,05,6.70
2011,04,10,09,06,6.70
2011,04,10,09,07,6.70
2011,04,10,09,08,6.80
2011,04,10,09,09,6.80
2011,04,10,09,10,6.80
2011,04,10,09,11,6.80
2011,04,10,09,12,6.80
2011,04,10,09,13,6.80
2011,04,10,09,14,6.80
2011,04,10,09,15,6.80
2011,04,10,09,16,6.80
2011,04,10,09,17,6.80
2011,04,10,09,18,6.80
2011,04,10,09,19,6.80
2011,04,10,09,20,6.80
2011,04,10,09,21,6.80
2011,04,10,09,22,6.90
2011,04,10,09,23,6.90
2011,04,10,09,24,6.90
2011,04,10,09,25,6.90
2011,04,10,09,26,6.90
2011,04,10,09,27,7.00
2011,04,10,09,28,7.00
2011,04,10,09,29,7.00
2011,04,10,09,30,7.00
2011,04,10,09,31,7.10
2011,04,10,09,32,7.10
2011,04,10,09,33,7.10
2011,04,10,09,34,7.10
2011,04,10,09,35,7.10
2011,04,10,09,36,7.10
2011,04,10,09,37,7.10
2011,04,10,09,38,7.10
2011,04,10,09,39,7.10
2011,04,10,09,40,7.10
2011,04,10,09,41,7.10
2011,04,10,09,42,7.20
2011,04,10,09,43,7.20
2011,04,10,09,44,7.20
2011,04,10,09,45,7.20
2011,04,10,09,46,7.20
2011,04,10,09,47,7.20
2011,04,10,09,48,7.20
2011,04,10,09,49,7.20
2011,04,10,09,50,7.20
2011,04,10,09,51,7.20
2011,04,10,09,52,7.20
2011,04,10,09,53,7.30
2011,04,10,09,54,7.30
2011,04,10,09,55,7.30
2011,04,10,09,56,7.30
2011,04,10,09,57,7.30
2011,04,10,09,58,7.40
2011,04,10,09,59,7.40
2011,04,10,10,00,7.40
2011,04,10,10,01,7.40
2011,04,10,10,02,7.40
2011,04,10,10,03,7.40
2011,04,10,10,04,7.40
2011,04,10,10,05,7.40
2011,04,10,10,06,7.50
2011,04,10,10,07,7.50
2011,04,10,10,08,7.50
2011,04,10,10,09,7.40
2011,04,10,10,10,7.40
2011,04,10,10,11,7.40
2011,04,10,10,12,7.40
2011,04,10,10,13,7.40
2011,04,10,10,14,7.40
2011,04,10,10,15,7.30
2011,04,10,10,16,7.30
2011,04,10,10,17,7.30
2011,04,10,10,18,7.30
2011,04,10,10,19,7.30
2011,04,10,10,20,7.30
2011,04,10,10,21,7.30
2011,04,10,10,22,7.30
2011,04,10,10,23,7.30
2011,04,10,10,24,7.30
2011,04,10,10,25,7.30
2011,04,10,10,26,7.30
2011,04,10,10,27,7.30
2011,04,10,10,28,7.30
2011,04,10,10,29,7.40
2011,04,10,10,30,7.40
2011,04,10,10,31,7.40
2011,04,10,10,32,7.30
2011,04,10,10,33,7.40
2011,04,10,10,34,7.30
2011,04,10,10,35,7.30
2011,04,10,10,36,7.30
2011,04,10,10,37,7.30
2011,04,10,10,38,7.30
2011,04,10,10,39,7.30
2011,04,10,10,40,7.30
2011,04,10,10,41,7.30
2011,04,10,10,42,7.30
2011,04,10,10,43,7.30
2011,04,10,10,44,7.40
2011,04,10,10,45,7.40
2011,04,10,10,46,7.40
2011,04,10,10,47,7.40
2011,04,10,10,48,7.40
2011,04,10,10,49,7.40
2011,04,10,10,50,7.50
2011,04,10,10,51,7.50
2011,04,10,10,52,7.50
2011,04,10,10,53,7.60
2011,04,10,10,54,7.60
2011,04,10,10,55,7.60
2011,04,10,10,56,7.70
2011,04,10,10,57,7.70
2011,04,10,10,58,7.80
2011,04,10,10,59,7.80
2011,04,10,11,00,7.80
2011,04,10,11,01,7.80
2011,04,10,11,02,7.80
2011,04,10,11,03,7.80
2011,04,10,11,04,7.80
2011,04,10,11,05,7.80
2011,04,10,11,06,7.70
2011,04,10,11,07,7.70
2011,04,10,11,08,7.80
2011,04,10,11,09,7.80
2011,04,10,11,10,7.80
2011,04,10,11,11,7.90
2011,04,10,11,12,7.90
2011,04,10,11,13,8.00
2011,04,10,11,14,8.10
2011,04,10,11,15,8.10
2011,04,10,11,16,8.10
2011,04,10,11,17,8.20
2011,04,10,11,18,8.20
2011,04,10,11,19,8.20
2011,04,10,11,20,8.20
2011,04,10,11,21,8.20
2011,04,10,11,22,8.30
2011,04,10,11,23,8.30
2011,04,10,11,24,8.30
2011,04,10,11,25,8.30
2011,04,10,11,26,8.30
2011,04,10,11,27,8.40
2011,04,10,11,28,8.40
2011,04,10,11,29,8.40
2011,04,10,11,30,8.40
2011,04,10,11,31,8.40
2011,04,10,11,32,8.40
2011,04,10,11,33,8.40
2011,04,10,11,34,8.40
2011,04,10,11,35,8.40
2011,04,10,11,36,8.40
2011,04,10,11,37,8.40
2011,04,10,11,38,8.30
2011,04,10,11,39,8.30
2011,04,10,11,40,8.30
2011,04,10,11,41,8.30
2011,04,10,11,42,8.30
2011,04,10,11,43,8.30
2011,04,10,11,44,8.40
2011,04,10,11,45,8.40
2011,04,10,11,46,8.40
2011,04,10,11,47,8.40
2011,04,10,11,48,8.40
2011,04,10,11,49,8.30
2011,04,10,11,50,8.30
2011,04,10,11,51,8.30
2011,04,10,11,52,8.30
2011,04,10,11,53,8.30
2011,04,10,11,54,8.30
2011,04,10,11,55,8.30
2011,04,10,11,56,8.40
2011,04,10,11,57,8.40
2011,04,10,11,58,8.40
2011,04,10,11,59,8.40
2011,04,10,12,00,8.40
2011,04,10,12,01,8.40
2011,04,10,12,02,8.40
2011,04,10,12,03,8.50
2011,04,10,12,04,8.50
2011,04,10,12,05,8.60
2011,04,10,12,06,8.60
2011,04,10,12,07,8.60
2011,04,10,12,08,8.60
2011,04,10,12,09,8.60
2011,04,10,12,10,8.60
2011,04,10,12,11,8.60
2011,04,10,12,12,8.60
2011,04,10,12,13,8.60
2011,04,10,12,14,8.60
2011,04,10,12,15,8.60
2011,04,10,12,16,8.60
2011,04,10,12,17,8.60
2011,04,10,12,18,8.70
2011,04,10,12,19,8.70
2011,04,10,12,20,8.70
2011,04,10,12,21,8.70
2011,04,10,12,22,8.70
2011,04,10,12,23,8.70
2011,04,10,12,24,8.80
2011,04,10,12,25,8.80
2011,04,10,12,26,8.80
2011,04,10,12,27,8.90
2011,04,10,12,28,9.00
2011,04,10,12,29,9.00
2011,04,10,12,30,9.00
2011,04,10,12,31,9.10
2011,04,10,12,32,9.10
2011,04,10,12,33,9.10
2011,04,10,12,34,9.10
2011,04,10,12,35,9.10
2011,04,10,12,36,9.10
2011,04,10,12,37,9.10
2011,04,10,12,38,9.20
2011,04,10,12,39,9.20
2011,04,10,12,40,9.20
2011,04,10,12,41,9.20
2011,04,10,12,42,9.20
2011,04,10,12,43,9.20
2011,04,10,12,44,9.20
2011,04,10,12,45,9.30
2011,04,10,12,46,9.30
2011,04,10,12,47,9.30
2011,04,10,12,48,9.30
2011,04,10,12,49,9.30
2011,04,10,12,50,9.30
2011,04,10,12,51,9.30
2011,04,10,12,52,9.40
2011,04,10,12,53,9.40
2011,04,10,12,54,9.50
2011,04,10,12,55,9.50
2011,04,10,12,56,9.60
2011,04,10,12,57,9.60
2011,04,10,12,58,9.60
2011,04,10,12,59,9.60
2011,04,10,13,00,9.70
2011,04,10,13,01,9.70
2011,04,10,13,02,9.80
2011,04,10,13,03,9.80
2011,04,10,13,04,9.80
2011,04,10,13,05,9.90
2011,04,10,13,06,10.00
2011,04,10,13,07,10.10
2011,04,10,13,08,10.10
2011,04,10,13,09,10.20
2011,04,10,13,10,10.30
2011,04,10,13,11,10.30
2011,04,10,13,12,10.40
2011,04,10,13,13,10.40
2011,04,10,13,14,10.40
2011,04,10,13,15,10.40
2011,04,10,13,16,10.40
2011,04,10,13,17,10.40
2011,04,10,13,18,10.40
2011,04,10,13,19,10.50
2011,04,10,13,20,10.50
2011,04,10,13,21,10.50
2011,04,10,13,22,10.60
2011,04,10,13,23,10.60
2011,04,10,13,24,10.60
2011,04,10,13,25,10.60
2011,04,10,13,26,10.60
2011,04,10,13,27,10.60
2011,04,10,13,28,10.60
2011,04,10,13,29,10.60
2011,04,10,13,30,10.60
2011,04,10,13,31,10.60
2011,04,10,13,32,10.70
2011,04,10,13,33,10.70
2011,04,10,13,34,10.70
2011,04,10,13,35,10.70
2011,04,10,13,36,10.70
2011,04,10,13,37,10.70
2011,04,10,13,38,10.70
2011,04,10,13,39,10.70
2011,04,10,13,40,10.70
2011,04,10,13,41,10.70
2011,04,10,13,42,10.70
2011,04,10,13,43,10.70
2011,04,10,13,44,10.70
2011,04,10,13,45,10.70
2011,04,10,13,46,10.70
2011,04,10,13,47,10.70
2011,04,10,13,48,10.70
2011,04,10,13,49,10.70
2011,04,10,13,50,10.70
2011,04,10,13,51,10.60
2011,04,10,13,52,10.60
2011,04,10,13,53,10.60
2011,04,10,13,54,10.60
2011,04,10,13,55,10.50
2011,04,10,13,56,10.50
2011,04,10,13,57,10.50
2011,04,10,13,58,10.40
2011,04,10,13,59,10.40
2011,04,10,14,00,10.40
2011,04,10,14,01,10.40
2011,04,10,14,02,10.40
2011,04,10,14,03,10.30
2011,04,10,14,04,10.30
2011,04,10,14,05,10.30
2011,04,10,14,06,10.30
2011,04,10,14,07,10.20
2011,04,10,14,08,10.20
2011,04,10,14,09,10.20
2011,04,10,14,10,10.20
2011,04,10,14,11,10.20
2011,04,10,14,12,10.20
2011,04,10,14,13,10.10
2011,04,10,14,14,10.10
2011,04,10,14,15,10.10
2011,04,10,14,16,10.10
2011,04,10,14,17,10.00
2011,04,10,14,18,10.00
2011,04,10,14,19,9.90
2011,04,10,14,20,9.90
2011,04,10,14,21,9.80
2011,04,10,14,22,9.80
2011,04,10,14,23,9.80
2011,04,10,14,24,9.80
2011,04,10,14,25,9.70
2011,04,10,14,26,9.70
2011,04,10,14,27,9.70
2011,04,10,14,28,9.70
2011,04,10,14,29,9.60
2011,04,10,14,30,9.60
2011,04,10,14,31,9.60
2011,04,10,14,32,9.60
2011,04,10,14,33,9.60
2011,04,10,14,34,9.50
2011,04,10,14,35,9.50
2011,04,10,14,36,9.40
2011,04,10,14,37,9.40
2011,04,10,14,38,9.40
2011,04,10,14,39,9.30
2011,04,10,14,40,9.30
2011,04,10,14,41,9.30
2011,04,10,14,42,9.30
2011,04,10,14,43,9.30
2011,04,10,14,44,9.30
2011,04,10,14,45,9.30
2011,04,10,14,46,9.30
2011,04,10,14,47,9.30
2011,04,10,14,48,9.30
2011,04,10,14,49,9.30
2011,04,10,14,50,9.30
2011,04,10,14,51,9.30
2011,04,10,14,52,9.30
2011,04,10,14,53,9.30
2011,04,10,14,54,9.30
2011,04,10,14,55,9.30
2011,04,10,14,56,9.30
2011,04,10,14,57,9.30
2011,04,10,14,58,9.30
2011,04,10,14,59,9.30
2011,04,10,15,00,9.40
2011,04,10,15,01,9.40
2011,04,10,15,02,9.40
2011,04,10,15,03,9.50
2011,04,10,15,04,9.50
2011,04,10,15,05,9.50
2011,04,10,15,06,9.50
2011,04,10,15,07,9.50
2011,04,10,15,08,9.50
2011,04,10,15,09,9.50
2011,04,10,15,10,9.50
2011,04,10,15,11,9.50
2011,04,10,15,12,9.60
2011,04,10,15,13,9.60
2011,04,10,15,14,9.50
2011,04,10,15,15,9.50
2011,04,10,15,16,9.50
2011,04,10,15,17,9.50
2011,04,10,15,18,9.50
2011,04,10,15,19,9.50
2011,04,10,15,20,9.60
2011,04,10,15,21,9.60
2011,04,10,15,22,9.60
2011,04,10,15,23,9.70
2011,04,10,15,24,9.70
2011,04,10,15,25,9.70
2011,04,10,15,26,9.80
2011,04,10,15,27,9.80
2011,04,10,15,28,9.80
2011,04,10,15,29,9.80
2011,04,10,15,30,9.90
2011,04,10,15,31,9.90
2011,04,10,15,32,10.00
2011,04,10,15,33,10.00
2011,04,10,15,34,10.10
2011,04,10,15,35,10.10
2011,04,10,15,36,10.10
2011,04,10,15,37,10.10
2011,04,10,15,38,10.10
2011,04,10,15,39,10.20
2011,04,10,15,40,10.20
2011,04,10,15,41,10.20
2011,04,10,15,42,10.30
2011,04,10,15,43,10.30
2011,04,10,15,44,10.30
2011,04,10,15,45,10.30
2011,04,10,15,46,10.40
2011,04,10,15,47,10.40
2011,04,10,15,48,10.40
2011,04,10,15,49,10.50
2011,04,10,15,50,10.50
2011,04,10,15,51,10.60
2011,04,10,15,52,10.60
2011,04,10,15,53,10.60
2011,04,10,15,54,10.70
2011,04,10,15,55,10.70
2011,04,10,15,56,10.70
2011,04,10,15,57,10.70
2011,04,10,15,58,10.70
2011,04,10,15,59,10.70
2011,04,10,16,00,10.70
2011,04,10,16,01,10.70
2011,04,10,16,02,10.70
2011,04,10,16,03,10.70
2011,04,10,16,04,10.70
2011,04,10,16,05,10.70
2011,04,10,16,06,10.70
2011,04,10,16,07,10.70
2011,04,10,16,08,10.70
2011,04,10,16,09,10.70
2011,04,10,16,10,10.70
2011,04,10,16,11,10.80
2011,04,10,16,12,10.80
2011,04,10,16,13,10.80
2011,04,10,16,14,10.80
2011,04,10,16,15,10.80
2011,04,10,16,16,10.90
2011,04,10,16,17,10.90
2011,04,10,16,18,10.90
2011,04,10,16,19,10.90
2011,04,10,16,20,10.90
2011,04,10,16,21,11.00
2011,04,10,16,22,11.00
2011,04,10,16,23,11.10
2011,04,10,16,24,11.10
2011,04,10,16,25,11.10
2011,04,10,16,26,11.10
2011,04,10,16,27,11.10
2011,04,10,16,28,11.10
2011,04,10,16,29,11.10
2011,04,10,16,30,11.20
2011,04,10,16,31,11.20
2011,04,10,16,32,11.20
2011,04,10,16,33,11.20
2011,04,10,16,34,11.30
2011,04,10,16,35,11.30
2011,04,10,16,36,11.30
2011,04,10,16,37,11.30
2011,04,10,16,38,11.30
2011,04,10,16,39,11.30
2011,04,10,16,40,11.30
2011,04,10,16,41,11.20
2011,04,10,16,42,11.20
2011,04,10,16,43,11.20
2011,04,10,16,44,11.20
2011,04,10,16,45,11.20
2011,04,10,16,46,11.10
2011,04,10,16,47,11.10
2011,04,10,16,48,11.10
2011,04,10,16,49,11.10
2011,04,10,16,50,11.00
2011,04,10,16,51,11.00
2011,04,10,16,52,11.00
2011,04,10,16,53,10.90
2011,04,10,16,54,11.00
2011,04,10,16,55,11.00
2011,04,10,16,56,11.00
2011,04,10,16,57,10.90
2011,04,10,16,58,10.90
2011,04,10,16,59,10.80
2011,04,10,17,00,10.80
2011,04,10,17,01,10.80
2011,04,10,17,02,10.70
2011,04,10,17,03,10.70
2011,04,10,17,04,10.70
2011,04,10,17,05,10.60
2011,04,10,17,06,10.60
2011,04,10,17,07,10.60
2011,04,10,17,08,10.50
2011,04,10,17,09,10.50
2011,04,10,17,10,10.50
2011,04,10,17,11,10.40
2011,04,10,17,12,10.40
2011,04,10,17,13,10.40
2011,04,10,17,14,10.30
2011,04,10,17,15,10.30
2011,04,10,17,16,10.30
2011,04,10,17,17,10.30
2011,04,10,17,18,10.20
2011,04,10,17,19,10.20
2011,04,10,17,20,10.20
2011,04,10,17,21,10.20
2011,04,10,17,22,10.10
2011,04,10,17,23,10.10
2011,04,10,17,24,10.10
2011,04,10,17,25,10.00
2011,04,10,17,26,10.00
2011,04,10,17,27,10.00
2011,04,10,17,28,9.90
2011,04,10,17,29,9.90
2011,04,10,17,30,9.90
2011,04,10,17,31,9.80
2011,04,10,17,32,9.80
2011,04,10,17,33,9.70
2011,04,10,17,34,9.70
2011,04,10,17,35,9.70
2011,04,10,17,36,9.70
2011,04,10,17,37,9.60
2011,04,10,17,38,9.60
2011,04,10,17,39,9.60
2011,04,10,17,40,9.60
2011,04,10,17,41,9.60
2011,04,10,17,42,9.60
2011,04,10,17,43,9.60
2011,04,10,17,44,9.50
2011,04,10,17,45,9.50
2011,04,10,17,46,9.50
2011,04,10,17,47,9.50
2011,04,10,17,48,9.50
2011,04,10,17,49,9.50
2011,04,10,17,50,9.50
2011,04,10,17,51,9.50
2011,04,10,17,52,9.50
2011,04,10,17,53,9.50
2011,04,10,17,54,9.50
2011,04,10,17,55,9.50
2011,04,10,17,56,9.40
2011,04,10,17,57,9.40
2011,04,10,17,58,9.40
2011,04,10,17,59,9.40
2011,04,10,18,00,9.40
2011,04,10,18,01,9.40
2011,04,10,18,02,9.30
2011,04,10,18,03,9.30
2011,04,10,18,04,9.30
2011,04,10,18,05,9.30
2011,04,10,18,06,9.30
2011,04,10,18,07,9.30
2011,04,10,18,08,9.30
2011,04,10,18,09,9.30
2011,04,10,18,10,9.30
2011,04,10,18,11,9.30
2011,04,10,18,12,9.30
2011,04,10,18,13,9.30
2011,04,10,18,14,9.30
2011,04,10,18,15,9.30
2011,04,10,18,16,9.30
2011,04,10,18,17,9.30
2011,04,10,18,18,9.20
2011,04,10,18,19,9.20
2011,04,10,18,20,9.20
2011,04,10,18,21,9.20
2011,04,10,18,22,9.20
2011,04,10,18,23,9.20
2011,04,10,18,24,9.20
2011,04,10,18,25,9.20
2011,04,10,18,26,9.20
2011,04,10,18,27,9.20
2011,04,10,18,28,9.20
2011,04,10,18,29,9.20
2011,04,10,18,30,9.20
2011,04,10,18,31,9.20
2011,04,10,18,32,9.20
2011,04,10,18,33,9.20
2011,04,10,18,34,9.20
2011,04,10,18,35,9.20
2011,04,10,18,36,9.20
2011,04,10,18,37,9.20
2011,04,10,18,38,9.20
2011,04,10,18,39,9.20
2011,04,10,18,40,9.10
2011,04,10,18,41,9.10
2011,04,10,18,42,9.10
2011,04,10,18,43,9.10
2011,04,10,18,44,9.10
2011,04,10,18,45,9.10
2011,04,10,18,46,9.10
2011,04,10,18,47,9.10
2011,04,10,18,48,9.10
2011,04,10,18,49,9.10
2011,04,10,18,50,9.10
2011,04,10,18,51,9.10
2011,04,10,18,52,9.10
2011,04,10,18,53,9.10
2011,04,10,18,54,9.00
2011,04,10,18,55,9.00
2011,04,10,18,56,9.00
2011,04,10,18,57,9.00
2011,04,10,18,58,9.00
2011,04,10,18,59,9.00
2011,04,10,19,00,9.00
2011,04,10,19,01,9.00
2011,04,10,19,02,9.00
2011,04,10,19,03,9.00
2011,04,10,19,04,9.00
2011,04,10,19,05,9.00
2011,04,10,19,06,9.00
2011,04,10,19,07,9.00
2011,04,10,19,08,9.00
2011,04,10,19,09,9.00
2011,04,10,19,10,9.00
2011,04,10,19,11,8.90
2011,04,10,19,12,8.90
2011,04,10,19,13,8.90
2011,04,10,19,14,8.90
2011,04,10,19,15,8.90
2011,04,10,19,16,8.90
2011,04,10,19,17,8.90
2011,04,10,19,18,8.90
2011,04,10,19,19,8.90
2011,04,10,19,20,8.90
2011,04,10,19,21,8.90
2011,04,10,19,22,8.90
2011,04,10,19,23,8.90
2011,04,10,19,24,8.90
2011,04,10,19,25,8.80
2011,04,10,19,26,8.80
2011,04,10,19,27,8.80
2011,04,10,19,28,8.80
2011,04,10,19,29,8.80
2011,04,10,19,30,8.70
2011,04,10,19,31,8.70
2011,04,10,19,32,8.70
2011,04,10,19,33,8.70
2011,04,10,19,34,8.70
2011,04,10,19,35,8.70
2011,04,10,19,36,8.70
2011,04,10,19,37,8.70
2011,04,10,19,38,8.70
2011,04,10,19,39,8.60
2011,04,10,19,40,8.60
2011,04,10,19,41,8.60
2011,04,10,19,42,8.60
2011,04,10,19,43,8.60
2011,04,10,19,44,8.60
2011,04,10,19,45,8.60
2011,04,10,19,46,8.60
2011,04,10,19,47,8.60
2011,04,10,19,48,8.50
2011,04,10,19,49,8.50
2011,04,10,19,50,8.50
2011,04,10,19,51,8.40
2011,04,10,19,52,8.40
2011,04,10,19,53,8.40
2011,04,10,19,54,8.40
2011,04,10,19,55,8.40
2011,04,10,19,56,8.30
2011,04,10,19,57,8.30
2011,04,10,19,58,8.30
2011,04,10,19,59,8.30
2011,04,10,20,00,8.30
2011,04,10,20,01,8.30
2011,04,10,20,02,8.30
2011,04,10,20,03,8.30
2011,04,10,20,04,8.30
2011,04,10,20,05,8.30
2011,04,10,20,06,8.30
2011,04,10,20,07,8.30
2011,04,10,20,08,8.30
2011,04,10,20,09,8.30
2011,04,10,20,10,8.20
2011,04,10,20,11,8.20
2011,04,10,20,12,8.20
2011,04,10,20,13,8.20
2011,04,10,20,14,8.20
2011,04,10,20,15,8.20
2011,04,10,20,16,8.20
2011,04,10,20,17,8.20
2011,04,10,20,18,8.20
2011,04,10,20,19,8.10
2011,04,10,20,20,8.10
2011,04,10,20,21,8.10
2011,04,10,20,22,8.10
2011,04,10,20,23,8.10
2011,04,10,20,24,8.10
2011,04,10,20,25,8.10
2011,04,10,20,26,8.10
2011,04,10,20,27,8.10
2011,04,10,20,28,8.00
2011,04,10,20,29,8.00
2011,04,10,20,30,8.00
2011,04,10,20,31,8.00
2011,04,10,20,32,8.00
2011,04,10,20,33,8.00
2011,04,10,20,34,8.00
2011,04,10,20,35,8.00
2011,04,10,20,36,8.00
2011,04,10,20,37,8.00
2011,04,10,20,38,8.00
2011,04,10,20,39,8.00
2011,04,10,20,40,8.00
2011,04,10,20,41,8.00
2011,04,10,20,42,7.90
2011,04,10,20,43,7.90
2011,04,10,20,44,7.90
2011,04,10,20,45,7.90
2011,04,10,20,46,7.90
2011,04,10,20,47,7.90
2011,04,10,20,48,7.90
2011,04,10,20,49,7.90
2011,04,10,20,50,7.90
2011,04,10,20,51,7.90
2011,04,10,20,52,7.90
2011,04,10,20,53,7.90
2011,04,10,20,54,7.90
2011,04,10,20,55,7.90
2011,04,10,20,56,7.90
2011,04,10,20,57,7.90
2011,04,10,20,58,7.90
2011,04,10,20,59,7.90
2011,04,10,21,00,7.90
2011,04,10,21,01,7.90
2011,04,10,21,02,7.90
2011,04,10,21,03,7.90
2011,04,10,21,04,7.90
2011,04,10,21,05,7.90
2011,04,10,21,06,7.90
2011,04,10,21,07,7.90
2011,04,10,21,08,7.90
2011,04,10,21,09,7.90
2011,04,10,21,10,7.90
2011,04,10,21,11,7.90
2011,04,10,21,12,7.80
2011,04,10,21,13,7.80
2011,04,10,21,14,7.80
2011,04,10,21,15,7.80
2011,04,10,21,16,7.80
2011,04,10,21,17,7.80
2011,04,10,21,18,7.80
2011,04,10,21,19,7.80
2011,04,10,21,20,7.80
2011,04,10,21,21,7.80
2011,04,10,21,22,7.80
2011,04,10,21,23,7.80
2011,04,10,21,24,7.80
2011,04,10,21,25,7.80
2011,04,10,21,26,7.80
2011,04,10,21,27,7.80
2011,04,10,21,28,7.80
2011,04,10,21,29,7.80
2011,04,10,21,30,7.80
2011,04,10,21,31,7.80
2011,04,10,21,32,7.80
2011,04,10,21,33,7.80
2011,04,10,21,34,7.80
2011,04,10,21,35,7.80
2011,04,10,21,36,7.80
2011,04,10,21,37,7.80
2011,04,10,21,38,7.80
2011,04,10,21,39,7.80
2011,04,10,21,40,7.80
2011,04,10,21,41,7.80
2011,04,10,21,42,7.80
2011,04,10,21,43,7.80
2011,04,10,21,44,7.80
2011,04,10,21,45,7.80
2011,04,10,21,46,7.80
2011,04,10,21,47,7.80
2011,04,10,21,48,7.80
2011,04,10,21,49,7.80
2011,04,10,21,50,7.80
2011,04,10,21,51,7.80
2011,04,10,21,52,7.80
2011,04,10,21,53,7.80
2011,04,10,21,54,7.80
2011,04,10,21,55,7.80
2011,04,10,21,56,7.80
2011,04,10,21,57,7.80
2011,04,10,21,58,7.80
2011,04,10,21,59,7.80
2011,04,10,22,00,7.80
2011,04,10,22,01,7.80
2011,04,10,22,02,7.80
2011,04,10,22,03,7.80
2011,04,10,22,04,7.70
2011,04,10,22,05,7.70
2011,04,10,22,06,7.70
2011,04,10,22,07,7.70
2011,04,10,22,08,7.70
2011,04,10,22,09,7.60
2011,04,10,22,10,7.50
2011,04,10,22,11,7.50
2011,04,10,22,12,7.40
2011,04,10,22,13,7.40
2011,04,10,22,14,7.40
2011,04,10,22,15,7.30
2011,04,10,22,16,7.30
2011,04,10,22,17,7.20
2011,04,10,22,18,7.20
2011,04,10,22,19,7.20
2011,04,10,22,20,7.10
2011,04,10,22,21,7.10
2011,04,10,22,22,7.10
2011,04,10,22,23,7.00
2011,04,10,22,24,7.00
2011,04,10,22,25,6.90
2011,04,10,22,26,6.90
2011,04,10,22,27,6.90
2011,04,10,22,28,6.80
2011,04,10,22,29,6.80
2011,04,10,22,30,6.70
2011,04,10,22,31,6.70
2011,04,10,22,32,6.60
2011,04,10,22,33,6.60
2011,04,10,22,34,6.60
2011,04,10,22,35,6.50
2011,04,10,22,36,6.40
2011,04,10,22,37,6.40
2011,04,10,22,38,6.40
2011,04,10,22,39,6.30
2011,04,10,22,40,6.30
2011,04,10,22,41,6.20
2011,04,10,22,42,6.20
2011,04,10,22,43,6.10
2011,04,10,22,44,6.10
2011,04,10,22,45,6.00
2011,04,10,22,46,6.00
2011,04,10,22,47,5.90
2011,04,10,22,48,5.90
2011,04,10,22,49,5.90
2011,04,10,22,50,5.80
2011,04,10,22,51,5.80
2011,04,10,22,52,5.80
2011,04,10,22,53,5.80
2011,04,10,22,54,5.70
2011,04,10,22,55,5.70
2011,04,10,22,56,5.70
2011,04,10,22,57,5.70
2011,04,10,22,58,5.70
2011,04,10,22,59,5.70
2011,04,10,23,00,5.70
2011,04,10,23,01,5.60
2011,04,10,23,02,5.60
2011,04,10,23,03,5.60
2011,04,10,23,04,5.60
2011,04,10,23,05,5.60
2011,04,10,23,06,5.60
2011,04,10,23,07,5.60
2011,04,10,23,08,5.60
2011,04,10,23,09,5.60
2011,04,10,23,10,5.50
2011,04,10,23,11,5.50
2011,04,10,23,12,5.50
2011,04,10,23,13,5.50
2011,04,10,23,14,5.40
2011,04,10,23,15,5.40
2011,04,10,23,16,5.40
2011,04,10,23,17,5.40
2011,04,10,23,18,5.40
2011,04,10,23,19,5.40
2011,04,10,23,20,5.40
2011,04,10,23,21,5.40
2011,04,10,23,22,5.30
2011,04,10,23,23,5.30
2011,04,10,23,24,5.30
2011,04,10,23,25,5.30
2011,04,10,23,26,5.30
2011,04,10,23,27,5.20
2011,04,10,23,28,5.20
2011,04,10,23,29,5.20
2011,04,10,23,30,5.20
2011,04,10,23,31,5.20
2011,04,10,23,32,5.20
2011,04,10,23,33,5.20
2011,04,10,23,34,5.20
2011,04,10,23,35,5.20
2011,04,10,23,36,5.20
2011,04,10,23,37,5.20
2011,04,10,23,38,5.20
2011,04,10,23,39,5.20
2011,04,10,23,40,5.20
2011,04,10,23,41,5.20
2011,04,10,23,42,5.20
2011,04,10,23,43,5.20
2011,04,10,23,44,5.20
2011,04,10,23,45,5.20
2011,04,10,23,46,5.20
2011,04,10,23,47,5.20
2011,04,10,23,48,5.20
2011,04,10,23,49,5.20
2011,04,10,23,50,5.20
2011,04,10,23,51,5.10
2011,04,10,23,52,5.10
2011,04,10,23,53,5.10
2011,04,10,23,54,5.10
2011,04,10,23,55,5.10
2011,04,10,23,56,5.10
2011,04,10,23,57,5.10
2011,04,10,23,58,5.00
2011,04,10,23,59,5.00
